Temp
67 66 66 66 66 65 65 66 67 68 67 68 68 68 67 66 66 67 66 65 66 66
66 65 64 64 65 65 65 65 65 65 65 66 66 66 66 65 66 66 67 66 66 66
64 64 64 64 63 63 64 63 63 63 63 64 65 66 65 64 66 65 66 66 65 65
61 62 63 62 62 62 62 63 62 62 62 63 63 65 64 64 65 64 64 65 64 64
60 60 60 60 61 62 61 62 62 61 61 62 63 63 63 62 64 63 62 63 63 62
56 56 56 57 58 59 59 60 61 60 59 60 61 61 62 63 62 63 63 63 63 62
54 54 54 55 56 56 58 57 58 59 58 58 59 60 61 61 61 61 61 62 63 62
54 54 53 52 53 55 55 56 56 56 57 57 57 58 55 56 59 60 60 61 62 61
50 51 50 50 51 51 51 52 53 52 53 53 56 56 56 56 58 59 59 58 60 61
48 49 47 46 47 48 48 50 50 52 51 49 53 55 54 54 55 57 59 59 59 59
49 46 45 43 43 45 45 47 48 50 51 50 52 53 53 53 54 55 57 58 58 58
46 43 43 41 41 41 43 43 46 48 49 49 51 53 52 52 53 52 55 57 57 57
44 43 41 40 40 41 42 43 43 43 47 48 48 51 52 52 52 52 54 56 56 54
43 42 41 41 40 41 41 41 43 44 47 48 50 50 52 51 52 52 52 52 53 55
MSLP
1017.04 1016.52 1015.94 1015.42 1015.03 1014.43 1013.94 1013.60 1013.43 1013.17 1013.04 1012.78 1012.53 1012.18 1012.05 1011.88 1011.61 1011.45 1011.17 1010.96 1010.81 1010.55
1016.40 1015.94 1015.39 1014.93 1014.50 1013.99 1013.54 1013.18 1012.90 1012.69 1012.30 1011.94 1011.67 1011.43 1011.19 1011.00 1010.67 1010.55 1010.40 1010.28 1010.14 1010.00
1015.98 1015.43 1014.85 1014.29 1013.68 1013.28 1012.79 1012.49 1012.06 1011.85 1011.45 1010.96 1010.66 1010.52 1010.40 1010.13 1009.85 1009.79 1009.59 1009.51 1009.38 1009.28
1015.53 1014.91 1014.24 1013.62 1012.97 1012.43 1012.09 1011.65 1011.18 1010.95 1010.50 1009.92 1009.68 1009.51 1009.35 1009.23 1008.99 1008.70 1008.74 1008.80 1008.67 1008.63
1015.10 1014.44 1013.70 1012.98 1012.38 1011.93 1011.31 1010.77 1010.30 1010.06 1009.72 1008.99 1008.72 1008.66 1008.45 1008.28 1008.11 1007.97 1007.81 1007.88 1007.92 1007.89
1014.81 1014.21 1013.43 1012.65 1011.91 1011.30 1010.66 1009.86 1009.45 1009.13 1008.70 1008.23 1007.86 1007.76 1007.60 1007.49 1007.36 1007.19 1007.05 1007.04 1007.08 1007.20
1014.24 1013.63 1013.01 1012.32 1011.61 1010.88 1010.11 1009.33 1008.67 1008.03 1007.70 1007.52 1007.27 1006.97 1006.78 1006.71 1006.64 1006.51 1006.60 1006.47 1006.39 1006.54
1013.32 1012.80 1012.21 1011.63 1010.97 1010.24 1009.47 1008.71 1008.12 1007.54 1007.02 1006.69 1006.49 1006.49 1006.56 1006.57 1005.73 1005.61 1005.68 1005.71 1005.78 1005.92
1012.96 1012.32 1011.52 1010.92 1010.17 1009.46 1008.84 1008.22 1007.52 1006.82 1006.23 1005.81 1005.56 1005.45 1005.43 1005.41 1004.80 1004.61 1004.81 1004.95 1005.10 1005.28
1012.37 1011.35 1010.81 1010.16 1009.47 1008.64 1007.90 1007.25 1006.49 1005.72 1005.38 1005.36 1004.99 1004.46 1004.57 1004.53 1004.61 1004.12 1003.95 1004.00 1004.01 1004.23
1011.38 1010.54 1009.71 1008.99 1008.27 1007.52 1007.09 1006.44 1005.62 1004.85 1004.36 1004.20 1003.99 1003.72 1003.75 1003.67 1003.67 1003.50 1003.19 1003.23 1003.41 1003.51
1010.77 1009.66 1008.75 1007.86 1006.97 1006.42 1005.84 1005.60 1004.84 1004.13 1003.70 1003.30 1002.91 1002.63 1002.84 1002.84 1002.71 1002.60 1002.42 1002.54 1002.76 1002.82
1009.94 1008.80 1007.84 1006.84 1006.01 1005.59 1005.21 1004.62 1004.18 1003.64 1002.95 1002.56 1002.19 1002.02 1001.92 1002.09 1001.90 1001.65 1001.54 1001.64 1001.69 1001.91
1009.01 1007.97 1006.94 1005.96 1005.25 1004.72 1004.19 1003.81 1003.21 1002.64 1002.06 1001.66 1001.38 1001.11 1001.02 1001.11 1001.11 1000.86 1000.78 1000.59 1000.49 1000.57
Wind_Speed
19 13 14 16 15 14 14 14 17 16 17 18 17 16 15 13 13 14 12 14 12 10
18 19 16 20 18 14 17 15 18 19 20 19 18 17 17 13 16 15 14 13 13 11
19 20 19 18 20 19 17 20 19 19 21 20 18 17 17 15 16 17 13 11 13 12
19 20 20 19 20 19 20 21 20 19 20 19 18 17 15 17 18 18 16 16 15 14
21 21 21 20 21 21 21 21 19 19 19 19 17 17 16 17 17 18 17 17 16 16
20 21 22 22 22 21 22 21 21 20 19 19 17 16 16 16 17 18 18 18 17 16
20 21 20 21 22 22 21 21 21 21 19 17 16 18 17 16 17 16 15 16 16 16
21 21 20 20 21 21 21 20 18 19 18 16 15 14 14 18 17 17 17 18 17 17
20 20 18 19 20 18 20 19 18 18 18 16 12 21 23 20 18 16 16 17 17 17
21 21 20 18 20 20 20 20 21 20 17 17 19 23 24 24 17 16 16 17 16 15
22 21 20 18 19 19 16 20 18 19 18 16 16 22 21 22 19 17 18 18 17 18
21 21 19 19 19 15 15 15 17 16 16 18 17 22 23 20 16 14 18 17 18 19
21 19 21 19 14 12 14 13 11 16 15 21 16 20 22 19 13 15 13 17 18 23
20 19 18 16 12 12 12 11 14 14 14 14 15 16 22 21 14 13 14 13 13 12
Wind_Direction
296 291 289 286 288 286 287 285 287 285 282 278 277 276 268 268 256 260 263 261 257 252
297 293 290 291 287 288 284 282 278 280 277 269 269 271 271 266 260 258 259 260 258 252
301 296 292 288 287 279 284 283 283 285 274 265 259 261 264 263 257 258 261 260 259 261
298 296 293 291 288 282 286 282 279 281 276 262 258 257 257 258 258 257 259 263 262 259
302 300 296 292 290 289 286 281 280 280 272 262 257 256 257 254 258 258 256 259 256 261
305 304 300 296 295 292 288 283 283 274 268 259 258 257 255 254 259 258 258 256 255 262
303 302 301 299 296 292 287 283 282 274 269 264 268 262 257 252 255 256 254 256 254 259
301 303 300 298 294 292 288 286 283 281 274 263 245 253 252 269 242 239 242 248 253 258
307 302 300 293 294 293 291 290 284 280 276 266 258 259 259 239 256 241 243 246 248 252
301 300 295 290 287 283 285 283 278 274 272 266 263 257 259 250 241 249 251 253 252 253
306 299 293 281 277 277 281 280 279 276 267 261 261 258 254 248 244 246 253 254 257 259
306 297 298 288 285 285 275 282 270 273 268 264 257 253 246 247 245 247 253 258 258 258
306 297 300 295 285 271 274 273 280 267 267 260 258 260 260 249 249 253 255 259 257 253
304 300 297 299 286 280 286 268 271 270 273 267 261 259 257 249 254 259 261 257 255 252